User: anonymous   Login
Location: Tyler Bend Campground
(35.9875°N, 92.7606°W)
Time: 08:43:01
(UTC-06:00)
Language:

Iridium 39 - Orbit

View from above orbital plane
View from above orbital plane
View from above satellite
View from above satellite

Ground track
Ground track

The orbit data is extracted from the following two-line orbital elements,

1 25042U 97069D   15031.50062774  .00000122  00000-0  36478-4 0  1534
2 25042 086.3956 024.8418 0002108 109.0645 251.0779 14.34229015901940
Epoch (UTC): 31 January 2015 12:00:54
Eccentricity: 0.0002108
inclination: 86.3956°
perigee height: 776 km
apogee height: 779 km
right ascension of ascending node: 24.8418°
argument of perigee: 109.0645°
revolutions per day: 14.34229015
mean anomaly at epoch: 251.0779°
orbit number at epoch: 90194

The dashed part of the orbit path shows where the satellite is in the earth's shadow,  

DLR